Regional Weather Roundup
Issued by NWS

Home | Current Version | Previous Version | Graphics & Text | Print | Product List | Glossary On
Versions: 1 2 3 4 5 6 7 8 9 10 11 12 13 14 15 16 17 18 19 20 21 22 23 24 25 26 27 28 29 30 31 32 33 34 35 36 37 38 39 40 41 42 43 44 45 46 47 48 49 50
000
ASUS45 KSLC 292310
RWRUT

UTAH REGIONAL WEATHER ROUNDUP
NATIONAL WEATHER SERVICE SALT LAKE CITY UT
400 PM MST THU JAN 29 2015

UTZ001>011-023>025-300000-

NORTHERN UTAH

CITY           SKY/WX    TMP DP  RH WIND       PRES   REMARKS
BRIGHAM CITY   PTSUNNY   46  36  66 N7        30.27F
HILL AFB       CLOUDY    45  29  52 N6        30.25F
LOGAN          SUNNY     40  35  83 SW3       30.29F
OGDEN          CLOUDY    45  36  70 NW7       30.25F
PROVO AIRPORT  CLOUDY    43  32  65 CALM      30.25F
SALT LAKE CITY CLOUDY    43  36  76 NW7       30.26F
VERNAL         CLOUDY    47  29  49 CALM      30.29F
WENDOVER       CLOUDY    45  34  65 E6        30.28S
HEBER CITY     CLOUDY    39  32  75 CALM      30.26F
WEST JORDAN    SUNNY     43  37  81 NW7       30.27S

$$

UTZ012>022-026-027-300000-

SOUTHERN/CENTRAL UTAH

CITY           SKY/WX    TMP DP  RH WIND       PRES   REMARKS
BLANDING       CLOUDY    49  30  48 E3        30.35S
BRYCE CANYON   CLOUDY    41  26  55 E7        30.26F
CEDAR CITY     CLOUDY    45  32  60 CALM      30.20F
DELTA          CLOUDY    48  34  57 CALM      30.24S
HANKSVILLE     CLOUDY    52  32  46 CALM      30.28S
MILFORD        LGT RAIN  45  36  70 N13       30.23S
MOAB/CYNLANDS  PTSUNNY   51  34  52 NW6       30.24F
PRICE          PTSUNNY   50  24  36 SW6       30.26F
ST GEORGE      CLOUDY    59  36  41 SE3       30.14F
KANAB          CLOUDY    52  32  46 NE13      30.22F

$$

REGIONAL REPORTS     COLORADO/ARIZONA

CITY           SKY/WX    TMP DP  RH WIND       PRES   REMARKS
CRAIG, CO      PTSUNNY   39  32  76 S3        30.31F
GRAND JUNCTION CLOUDY    51  28  41 S5        30.26F
RIFLE          PTSUNNY   52  26  36 W5        30.27S
MONTROSE       CLOUDY    49  26  41 N3        30.30F
CORTEZ         CLOUDY    51  29  42 CALM      30.29R
PAGE, AZ       NOT AVBL
GRAND CANYON   CLOUDY    47  31  53 E10       30.19F
KINGMAN        CLOUDY    60  39  45 NE9       30.08S
FLAGSTAFF      LGT RAIN  45  33  63 E5        30.22R

$$

REGIONAL REPORTS    NEVADA/IDAHO/WYOMING

CITY           SKY/WX    TMP DP  RH WIND       PRES   REMARKS
LAS VEGAS, NV  CLOUDY    65  35  33 E3        30.05F
ELY            LGT RAIN  39  34  82 N5        30.24F
ELKO           PTSUNNY   47  33  58 CALM      30.22S
POCATELLO, ID  SUNNY     44  36  73 NE12      30.32S
BURLEY         PTSUNNY   42  33  70 E12       30.28F
EVANSTON, WY   CLOUDY    34  28  79 NE8       30.32S WCI  27
ROCK SPRINGS   PTSUNNY   37  28  70 NE6       30.32F WCI  32
KEMMERER       PTSUNNY   36  28  75 NE12      30.33S WCI  27

$$



USA.gov is the U.S. government's official web portal to all federal, state and local government web resources and services.